Weather WX

World > North America > United States > Oregon

Sisters, Oregon Regional Weather

Lat: 44.29N, Lon: 121.55W
Wx Zone: ORZ509
Feedback

Sisters, OR Regional Weather

Expires:201906161100;;155064
ASUS46 KPQR 161010
RWROR 

OREGON REGIONAL WEATHER ROUNDUP
NATIONAL WEATHER SERVICE PORTLAND OR
300 AM PDT SUN JUN 16 2019

NOTE: "FAIR" INDICATES FEW OR NO CLOUDS BELOW 12,000 FEET WITH
NO SIGNIFICANT WEATHER AND/OR OBSTRUCTIONS TO VISIBILITY.


ORZ029>031-041-044-049-050-061>064-502-503-505>511-161100-
EASTERN OREGON

  
CITY           SKY/WX    TMP DP  RH WIND       PRES   REMARKS
MADRAS         CLEAR     59  37  44 CALM      30.00S                  
REDMOND        PTCLDY    51  33  50 S3        30.00S                  
BEND           PTCLDY    55  45  67 CALM      30.01S                  
PRINEVILLE     PTCLDY    48  30  49 W3        30.00S                  
KLAMATH FALLS  PTCLDY    50  46  86 CALM      30.02F                  
LAKEVIEW       PTCLDY    53  35  50 NW15      30.05F                  
HERMISTON      CLEAR     62  50  64 S3        29.87S                  
PENDLETON      CLEAR     56  47  71 SE8       29.91R                  
JOHN DAY       CLEAR     57  41  55 E7        30.01S                  
MEACHAM        CLEAR     43  38  82 CALM      30.01S                  
LA GRANDE      CLEAR     51  45  79 CALM      29.97S                  
BAKER CITY     CLEAR     48  42  80 W6        29.98S                  
BURNS          CLEAR     54  36  50 W14       30.01S                  
ROME             N/A     52  33  48 S9        29.98S                  
ONTARIO        CLEAR     69  40  34 NW3       29.89S                  
$$
  

SKY/WX - Weather  TMP - Temperature  DP - Dew Point  RH - Relative Humidity
WIND - Wind Direction/Speed PRES - Barometric Pressure VSB - Visibility
WCI - Wind Chill Index E13G22 Wind - East Wind 13 mph/Gusts of 22 mph